Private Wetterstation Wechselburg
Wetterdaten: Sonntag, 27.12.2020
Datum Zeit Temp. +2m Bodentemp. Temp.+5cm Temp. Wind Windchill X Diff Temp. Feuchte +2m Feuchte +5cm Luftdruck Regen Wind Richtung Richtung Sonnenschein Taupunkt Windchill Windben
27.12.2020 00:00 1,2 C 4,5 C 0,8 C 0,7 C -0,3 C 0,0 C 79 % 84 % 1017,6 hPa 0,0 l/m 5,3 km/h (1 Bft) S 180 0 min -2,0 C -2,1 C 10,3 km/h (2 Bft)
27.12.2020 00:05 1,3 C 4,5 C 0,9 C 0,8 C -0,2 C 0,0 C 79 % 84 % 1017,6 hPa 0,0 l/m 5,0 km/h (1 Bft) S-SO 157 0 min -1,9 C -1,8 C 6,4 km/h (2 Bft)
27.12.2020 00:10 1,3 C 4,5 C 0,8 C 0,8 C -0,2 C 0,0 C 79 % 83 % 1017,3 hPa 0,0 l/m 5,1 km/h (1 Bft) SO 135 0 min -1,9 C -1,9 C 2,9 km/h (1 Bft)
27.12.2020 00:15 1,3 C 4,5 C 0,9 C 0,7 C -0,5 C 0,0 C 79 % 83 % 1017,3 hPa 0,0 l/m 5,8 km/h (2 Bft) S-SO 157 0 min -1,9 C -2,5 C 9,5 km/h (2 Bft)
27.12.2020 00:20 1,3 C 4,5 C 0,9 C 0,8 C -0,3 C 0,0 C 79 % 83 % 1017,3 hPa 0,0 l/m 5,5 km/h (1 Bft) S-SO 157 0 min -1,9 C -2,2 C 8,2 km/h (2 Bft)
27.12.2020 00:25 1,4 C 4,5 C 0,9 C 0,8 C -0,3 C 0,0 C 79 % 83 % 1017,3 hPa 0,0 l/m 5,6 km/h (1 Bft) N-NO 22 0 min -1,8 C -2,2 C 4,0 km/h (1 Bft)
27.12.2020 00:30 1,4 C 4,5 C 0,9 C 0,9 C -0,2 C 0,0 C 79 % 83 % 1016,8 hPa 0,0 l/m 5,1 km/h (1 Bft) O-NO 67 0 min -1,8 C -1,9 C 6,0 km/h (2 Bft)
27.12.2020 00:35 1,4 C 4,5 C 0,9 C 1,1 C 0,4 C 0,0 C 79 % 83 % 1016,8 hPa 0,0 l/m 3,9 km/h (1 Bft) O-SO 112 0 min -1,8 C 0,4 C 2,7 km/h (1 Bft)
27.12.2020 00:40 1,3 C 4,5 C 0,9 C 1,1 C 0,6 C 0,0 C 79 % 83 % 1016,8 hPa 0,0 l/m 3,5 km/h (1 Bft) W 270 0 min -1,9 C 0,6 C 4,3 km/h (1 Bft)
27.12.2020 00:45 1,4 C 4,5 C 1,0 C 1,0 C 0,1 C 0,0 C 79 % 83 % 1016,8 hPa 0,0 l/m 4,5 km/h (1 Bft) W-NW 292 0 min -1,8 C 0,1 C 7,1 km/h (2 Bft)
27.12.2020 00:50 1,4 C 4,5 C 0,9 C 0,8 C -0,3 C 0,0 C 79 % 83 % 1017,0 hPa 0,0 l/m 5,5 km/h (1 Bft) S-SO 157 0 min -1,8 C -2,2 C 7,1 km/h (2 Bft)
27.12.2020 00:55 1,5 C 4,5 C 0,9 C 0,9 C -0,4 C 0,0 C 79 % 83 % 1017,0 hPa 0,0 l/m 5,6 km/h (1 Bft) S-SO 157 0 min -1,7 C -2,3 C 5,5 km/h (1 Bft)
27.12.2020 01:00 1,5 C 4,5 C 0,9 C 0,9 C -0,3 C 0,0 C 79 % 83 % 1017,0 hPa 0,0 l/m 5,5 km/h (1 Bft) SO 135 0 min -1,7 C -2,2 C 8,0 km/h (2 Bft)
27.12.2020 01:05 1,5 C 4,4 C 0,9 C 0,9 C -0,2 C 0,0 C 79 % 83 % 1017,0 hPa 0,0 l/m 5,1 km/h (1 Bft) S 180 0 min -1,7 C -1,9 C 12,9 km/h (3 Bft)
27.12.2020 01:10 1,5 C 4,4 C 1,0 C 0,9 C -0,2 C 0,0 C 78 % 82 % 1015,9 hPa 0,0 l/m 5,3 km/h (1 Bft) W-SW 247 0 min -1,9 C -2,0 C 3,4 km/h (1 Bft)
27.12.2020 01:15 1,4 C 4,4 C 1,1 C 0,7 C -0,7 C 0,0 C 78 % 81 % 1015,9 hPa 0,0 l/m 6,8 km/h (2 Bft) NW 315 0 min -2,0 C -3,1 C 8,7 km/h (2 Bft)
27.12.2020 01:20 1,5 C 4,4 C 1,1 C 0,7 C -0,8 C 0,0 C 77 % 81 % 1015,9 hPa 0,0 l/m 6,9 km/h (2 Bft) S 180 0 min -2,1 C -3,3 C 7,7 km/h (2 Bft)
27.12.2020 01:25 1,6 C 4,4 C 1,1 C 1,0 C -1,1 C 0,0 C 77 % 80 % 1015,9 hPa 0,0 l/m 7,9 km/h (2 Bft) O-SO 112 0 min -2,0 C -4,0 C 6,4 km/h (2 Bft)
27.12.2020 01:30 1,6 C 4,4 C 1,0 C 0,7 C -1,1 C 0,0 C 77 % 81 % 1015,1 hPa 0,0 l/m 8,0 km/h (2 Bft) SW 225 0 min -2,0 C -4,0 C 10,1 km/h (2 Bft)
27.12.2020 01:35 1,6 C 4,4 C 1,0 C 0,7 C -1,1 C 0,0 C 77 % 80 % 1015,1 hPa 0,0 l/m 7,9 km/h (2 Bft) S-SO 157 0 min -2,0 C -4,0 C 23,8 km/h (4 Bft)
27.12.2020 01:40 1,6 C 4,4 C 1,0 C 1,0 C -1,3 C 0,0 C 76 % 81 % 1015,1 hPa 0,0 l/m 8,7 km/h (2 Bft) SW 225 0 min -2,2 C -4,5 C 14,6 km/h (3 Bft)
27.12.2020 01:45 1,6 C 4,4 C 1,0 C 0,6 C -1,3 C 0,0 C 76 % 80 % 1015,1 hPa 0,0 l/m 8,7 km/h (2 Bft) O 90 0 min -2,2 C -4,5 C 6,4 km/h (2 Bft)
27.12.2020 01:50 1,5 C 4,4 C 0,9 C 0,6 C -1,3 C 0,0 C 76 % 80 % 1014,9 hPa 0,0 l/m 8,0 km/h (2 Bft) S-SO 157 0 min -2,3 C -4,3 C 12,4 km/h (3 Bft)
27.12.2020 01:55 1,5 C 4,4 C 0,8 C 0,6 C -1,3 C 0,0 C 76 % 80 % 1014,9 hPa 0,0 l/m 7,2 km/h (2 Bft) SO 135 0 min -2,3 C -4,0 C 26,2 km/h (4 Bft)
27.12.2020 02:00 1,5 C 4,4 C 0,7 C 0,5 C -1,6 C 0,0 C 76 % 81 % 1014,9 hPa 0,0 l/m 7,6 km/h (2 Bft) S-SO 157 0 min -2,3 C -4,5 C 9,3 km/h (2 Bft)
27.12.2020 02:05 1,5 C 4,4 C 0,7 C 0,7 C -1,7 C 0,0 C 76 % 81 % 1014,9 hPa 0,0 l/m 7,9 km/h (2 Bft) S-SO 157 0 min -2,3 C -4,7 C 12,4 km/h (3 Bft)
27.12.2020 02:10 1,5 C 4,4 C 0,7 C 0,4 C -1,7 C 0,0 C 76 % 81 % 1014,5 hPa 0,0 l/m 7,9 km/h (2 Bft) S-SO 157 0 min -2,3 C -4,7 C 12,4 km/h (3 Bft)
27.12.2020 02:15 1,5 C 4,4 C 0,6 C 0,7 C -2,2 C 0,0 C 76 % 81 % 1014,5 hPa 0,0 l/m 9,7 km/h (2 Bft) S-SO 157 0 min -2,3 C -5,9 C 11,9 km/h (2 Bft)
27.12.2020 02:20 1,4 C 4,4 C 0,6 C 0,5 C -2,3 C 0,0 C 76 % 81 % 1014,5 hPa 0,0 l/m 9,8 km/h (2 Bft) S 180 0 min -2,4 C -6,0 C 11,4 km/h (2 Bft)
27.12.2020 02:25 1,3 C 4,4 C 0,6 C 0,4 C -2,4 C 0,0 C 76 % 81 % 1014,5 hPa 0,0 l/m 10,0 km/h (2 Bft) SO 135 0 min -2,5 C -6,2 C 11,4 km/h (2 Bft)
27.12.2020 02:30 1,3 C 4,4 C 0,5 C 0,4 C -2,1 C 0,0 C 76 % 81 % 1013,9 hPa 0,0 l/m 8,7 km/h (2 Bft) S-SO 157 0 min -2,5 C -5,4 C 15,0 km/h (3 Bft)
27.12.2020 02:35 1,2 C 4,4 C 0,5 C 0,2 C -1,8 C 0,0 C 76 % 81 % 1013,9 hPa 0,0 l/m 7,4 km/h (2 Bft) S 180 0 min -2,5 C -4,6 C 11,9 km/h (2 Bft)
27.12.2020 02:40 1,2 C 4,4 C 0,4 C 0,4 C -2,3 C 0,0 C 76 % 81 % 1013,9 hPa 0,0 l/m 8,9 km/h (2 Bft) SO 135 0 min -2,5 C -5,7 C 11,4 km/h (2 Bft)
27.12.2020 02:45 1,1 C 4,4 C 0,3 C 0,3 C -2,4 C 0,0 C 76 % 82 % 1013,9 hPa 0,0 l/m 8,4 km/h (2 Bft) S-SO 157 0 min -2,6 C -5,7 C 11,9 km/h (2 Bft)
27.12.2020 02:50 1,0 C 4,4 C 0,3 C 0,2 C -2,5 C 0,0 C 76 % 81 % 1013,6 hPa 0,0 l/m 8,4 km/h (2 Bft) S 180 0 min -2,7 C -5,8 C 10,8 km/h (2 Bft)
27.12.2020 02:55 1,1 C 4,4 C 0,3 C 0,1 C -3,1 C 0,0 C 76 % 82 % 1013,6 hPa 0,0 l/m 10,5 km/h (2 Bft) SO 135 0 min -2,6 C -7,2 C 13,7 km/h (3 Bft)
27.12.2020 03:00 1,1 C 4,4 C 0,2 C 0,1 C -3,2 C 0,0 C 76 % 82 % 1013,6 hPa 0,0 l/m 10,8 km/h (2 Bft) O-SO 112 0 min -2,6 C -7,4 C 13,8 km/h (3 Bft)
27.12.2020 03:05 0,9 C 4,4 C 0,1 C 0,0 C -2,8 C 0,0 C 76 % 82 % 1013,6 hPa 0,0 l/m 9,5 km/h (2 Bft) O-NO 67 0 min -2,8 C -6,5 C 10,8 km/h (2 Bft)
27.12.2020 03:10 0,8 C 4,4 C 0,1 C 0,0 C -2,6 C 0,0 C 76 % 82 % 1013,4 hPa 0,0 l/m 8,2 km/h (2 Bft) S-SO 157 0 min -2,9 C -5,9 C 9,2 km/h (2 Bft)
27.12.2020 03:15 0,8 C 4,4 C 0,0 C 0,0 C -2,5 C 0,0 C 76 % 82 % 1013,4 hPa 0,0 l/m 8,0 km/h (2 Bft) SO 135 0 min -2,9 C -5,7 C 11,4 km/h (2 Bft)
27.12.2020 03:20 0,9 C 4,4 C 0,0 C 0,0 C -2,9 C 0,0 C 76 % 82 % 1013,4 hPa 0,0 l/m 9,2 km/h (2 Bft) S 180 0 min -2,8 C -6,5 C 9,7 km/h (2 Bft)
27.12.2020 03:25 0,7 C 4,4 C -0,1 C -0,4 C -2,5 C 0,0 C 76 % 82 % 1013,4 hPa 0,0 l/m 7,6 km/h (2 Bft) SW 225 0 min -3,0 C -5,5 C 5,1 km/h (1 Bft)
27.12.2020 03:30 0,7 C 4,3 C -0,1 C -0,2 C -2,1 C 0,0 C 76 % 82 % 1013,4 hPa 0,0 l/m 6,1 km/h (2 Bft) S 180 0 min -3,0 C -4,5 C 13,4 km/h (3 Bft)
27.12.2020 03:35 0,6 C 4,3 C -0,2 C -0,3 C -2,2 C 0,0 C 76 % 82 % 1013,4 hPa 0,0 l/m 6,1 km/h (2 Bft) S-SO 157 0 min -3,1 C -4,6 C 8,7 km/h (2 Bft)
27.12.2020 03:40 0,7 C 4,3 C -0,2 C -0,3 C -2,2 C 0,0 C 76 % 82 % 1013,4 hPa 0,0 l/m 5,8 km/h (2 Bft) SW 225 0 min -3,0 C -4,5 C 5,8 km/h (2 Bft)
27.12.2020 03:45 0,6 C 4,3 C -0,3 C -0,2 C -1,8 C 0,0 C 76 % 82 % 1013,4 hPa 0,0 l/m 4,7 km/h (1 Bft) S-SO 157 0 min -3,1 C -3,5 C 5,8 km/h (2 Bft)
27.12.2020 03:50 0,5 C 4,3 C -0,3 C -0,3 C -1,9 C 0,0 C 76 % 82 % 1012,6 hPa 0,0 l/m 4,8 km/h (1 Bft) SW 225 0 min -3,2 C -3,6 C 11,4 km/h (2 Bft)
27.12.2020 03:55 0,4 C 4,3 C -0,3 C -0,5 C -2,3 C 0,0 C 77 % 83 % 1012,6 hPa 0,0 l/m 5,5 km/h (1 Bft) S-SO 157 0 min -3,1 C -4,4 C 13,4 km/h (3 Bft)
27.12.2020 04:00 0,4 C 4,3 C -0,4 C -0,5 C -2,4 C 0,0 C 77 % 83 % 1012,6 hPa 0,0 l/m 5,8 km/h (2 Bft) S 180 0 min -3,1 C -4,7 C 13,8 km/h (3 Bft)
27.12.2020 04:05 0,4 C 4,3 C -0,4 C -0,6 C -2,7 C 0,0 C 77 % 83 % 1012,6 hPa 0,0 l/m 6,9 km/h (2 Bft) S 180 0 min -3,1 C -5,5 C 7,1 km/h (2 Bft)
27.12.2020 04:10 0,4 C 4,3 C -0,3 C -0,4 C -3,2 C 0,0 C 77 % 83 % 1012,0 hPa 0,0 l/m 8,4 km/h (2 Bft) S 180 0 min -3,1 C -6,6 C 10,1 km/h (2 Bft)
27.12.2020 04:15 0,4 C 4,3 C -0,4 C -0,5 C -3,0 C 0,0 C 77 % 82 % 1012,0 hPa 0,0 l/m 7,7 km/h (2 Bft) S-SO 157 0 min -3,1 C -6,2 C 7,1 km/h (2 Bft)
27.12.2020 04:20 0,5 C 4,3 C -0,4 C -0,6 C -2,9 C 0,0 C 76 % 83 % 1012,0 hPa 0,0 l/m 7,6 km/h (2 Bft) S 180 0 min -3,2 C -6,0 C 12,4 km/h (3 Bft)
27.12.2020 04:25 0,4 C 4,3 C -0,5 C -0,6 C -2,7 C 0,0 C 76 % 82 % 1012,0 hPa 0,0 l/m 6,4 km/h (2 Bft) S-SO 157 0 min -3,3 C -5,3 C 6,9 km/h (2 Bft)
27.12.2020 04:30 0,3 C 4,3 C -0,5 C -0,8 C -3,0 C 0,0 C 76 % 82 % 1011,4 hPa 0,0 l/m 7,4 km/h (2 Bft) S-SO 157 0 min -3,4 C -6,0 C 18,5 km/h (3 Bft)
27.12.2020 04:35 0,3 C 4,3 C -0,5 C -0,5 C -3,3 C 0,0 C 76 % 82 % 1011,4 hPa 0,0 l/m 8,5 km/h (2 Bft) S-SW 202 0 min -3,4 C -6,8 C 6,8 km/h (2 Bft)
27.12.2020 04:40 0,3 C 4,3 C -0,5 C -0,6 C -3,2 C 0,0 C 76 % 82 % 1011,4 hPa 0,0 l/m 8,0 km/h (2 Bft) S 180 0 min -3,4 C -6,5 C 7,7 km/h (2 Bft)
27.12.2020 04:45 0,3 C 4,3 C -0,5 C -0,7 C -2,7 C 0,0 C 76 % 82 % 1011,4 hPa 0,0 l/m 6,1 km/h (2 Bft) SO 135 0 min -3,4 C -5,2 C 7,7 km/h (2 Bft)
27.12.2020 04:50 0,3 C 4,3 C -0,5 C -0,7 C -2,7 C 0,0 C 76 % 82 % 1011,4 hPa 0,0 l/m 6,0 km/h (2 Bft) W-NW 292 0 min -3,4 C -5,1 C 4,0 km/h (1 Bft)
27.12.2020 04:55 0,2 C 4,3 C -0,6 C -0,7 C -2,6 C 0,0 C 76 % 82 % 1011,4 hPa 0,0 l/m 5,6 km/h (1 Bft) W-SW 247 0 min -3,5 C -4,8 C 5,1 km/h (1 Bft)
27.12.2020 05:00 0,2 C 4,3 C -0,5 C -0,8 C -2,7 C 0,0 C 76 % 82 % 1011,4 hPa 0,0 l/m 6,0 km/h (2 Bft) S 180 0 min -3,5 C -5,1 C 10,8 km/h (2 Bft)
27.12.2020 05:05 0,3 C 4,3 C -0,5 C -0,7 C -2,7 C 0,0 C 76 % 82 % 1011,4 hPa 0,0 l/m 5,8 km/h (2 Bft) SW 225 0 min -3,4 C -5,0 C 7,4 km/h (2 Bft)
27.12.2020 05:10 0,3 C 4,3 C -0,6 C -0,7 C -2,8 C 0,0 C 76 % 82 % 1010,6 hPa 0,0 l/m 6,1 km/h (2 Bft) N 360 0 min -3,4 C -5,3 C 9,5 km/h (2 Bft)
27.12.2020 05:15 0,3 C 4,3 C -0,6 C -0,8 C -3,1 C 0,0 C 76 % 82 % 1010,6 hPa 0,0 l/m 6,8 km/h (2 Bft) SO 135 0 min -3,4 C -5,9 C 10,3 km/h (2 Bft)
27.12.2020 05:20 0,3 C 4,3 C -0,6 C -0,9 C -3,3 C 0,0 C 76 % 82 % 1010,6 hPa 0,0 l/m 7,4 km/h (2 Bft) S-SW 202 0 min -3,4 C -6,4 C 4,5 km/h (1 Bft)
27.12.2020 05:25 0,2 C 4,2 C -0,5 C -0,9 C -3,1 C 0,0 C 76 % 81 % 1010,6 hPa 0,0 l/m 7,1 km/h (2 Bft) S 180 0 min -3,5 C -6,0 C 10,1 km/h (2 Bft)
27.12.2020 05:30 0,3 C 4,2 C -0,5 C -0,7 C -2,7 C 0,0 C 76 % 81 % 1010,4 hPa 0,0 l/m 6,1 km/h (2 Bft) S 180 0 min -3,4 C -5,2 C 9,3 km/h (2 Bft)
27.12.2020 05:35 0,3 C 4,2 C -0,6 C -0,6 C -2,4 C 0,0 C 76 % 81 % 1010,4 hPa 0,0 l/m 5,6 km/h (1 Bft) S 180 0 min -3,4 C -4,6 C 9,2 km/h (2 Bft)
27.12.2020 05:40 0,3 C 4,2 C -0,5 C -0,5 C -2,2 C 0,0 C 75 % 81 % 1010,4 hPa 0,0 l/m 5,1 km/h (1 Bft) S 180 0 min -3,6 C -4,1 C 4,8 km/h (1 Bft)
27.12.2020 05:45 0,4 C 4,2 C -0,5 C -0,6 C -2,6 C 0,0 C 75 % 81 % 1010,4 hPa 0,0 l/m 6,1 km/h (2 Bft) S 180 0 min -3,5 C -5,1 C 7,4 km/h (2 Bft)
27.12.2020 05:50 0,5 C 4,2 C -0,5 C -0,5 C -2,4 C 0,0 C 75 % 81 % 1010,4 hPa 0,0 l/m 5,8 km/h (2 Bft) S 180 0 min -3,4 C -4,7 C 3,9 km/h (1 Bft)
27.12.2020 05:55 0,5 C 4,2 C -0,5 C -0,4 C -2,1 C 0,0 C 74 % 80 % 1010,4 hPa 0,0 l/m 5,0 km/h (1 Bft) S 180 0 min -3,6 C -4,0 C 8,5 km/h (2 Bft)
27.12.2020 06:00 0,4 C 4,2 C -0,5 C -0,5 C -2,3 C 0,0 C 74 % 80 % 1010,4 hPa 0,0 l/m 5,5 km/h (1 Bft) O-NO 67 0 min -3,7 C -4,4 C 10,9 km/h (2 Bft)
27.12.2020 06:05 0,4 C 4,2 C -0,5 C -0,5 C -2,4 C 0,0 C 73 % 79 % 1010,4 hPa 0,0 l/m 6,1 km/h (2 Bft) N-NO 22 0 min -3,9 C -4,8 C 4,0 km/h (1 Bft)
27.12.2020 06:10 0,5 C 4,2 C -0,4 C -0,6 C -2,8 C 0,0 C 73 % 79 % 1009,6 hPa 0,0 l/m 7,4 km/h (2 Bft) SO 135 0 min -3,8 C -5,8 C 11,7 km/h (2 Bft)
27.12.2020 06:15 0,5 C 4,2 C -0,3 C -0,6 C -2,8 C 0,0 C 72 % 78 % 1009,6 hPa 0,0 l/m 8,0 km/h (2 Bft) S-SO 157 0 min -3,9 C -6,0 C 12,7 km/h (3 Bft)
27.12.2020 06:20 0,7 C 4,2 C -0,3 C -0,5 C -2,8 C 0,0 C 71 % 77 % 1009,6 hPa 0,0 l/m 8,0 km/h (2 Bft) N-NW 337 0 min -3,9 C -6,0 C 8,7 km/h (2 Bft)
27.12.2020 06:25 0,7 C 4,2 C -0,2 C -0,5 C -2,8 C 0,0 C 71 % 77 % 1009,6 hPa 0,0 l/m 8,5 km/h (2 Bft) O 90 0 min -3,9 C -6,2 C 13,7 km/h (3 Bft)
27.12.2020 06:30 0,6 C 4,2 C -0,2 C -0,4 C -2,5 C 0,0 C 70 % 77 % 1009,8 hPa 0,0 l/m 7,6 km/h (2 Bft) S 180 0 min -4,2 C -5,5 C 6,0 km/h (2 Bft)
27.12.2020 06:35 0,7 C 4,2 C -0,3 C -0,2 C -2,1 C 0,0 C 70 % 76 % 1009,8 hPa 0,0 l/m 6,1 km/h (2 Bft) S 180 0 min -4,1 C -4,5 C 10,8 km/h (2 Bft)
27.12.2020 06:40 0,7 C 4,2 C -0,3 C -0,2 C -2,0 C 0,0 C 70 % 76 % 1009,8 hPa 0,0 l/m 5,6 km/h (1 Bft) W 270 0 min -4,1 C -4,1 C 1,9 km/h (1 Bft)
27.12.2020 06:45 0,6 C 4,2 C -0,3 C -0,2 C -1,7 C 0,0 C 69 % 76 % 1009,8 hPa 0,0 l/m 5,0 km/h (1 Bft) W-SW 247 0 min -4,4 C -3,5 C 2,7 km/h (1 Bft)
27.12.2020 06:50 0,5 C 4,2 C -0,3 C -0,2 C -1,7 C 0,0 C 69 % 75 % 1008,9 hPa 0,0 l/m 4,7 km/h (1 Bft) SO 135 0 min -4,5 C -3,4 C 9,2 km/h (2 Bft)
27.12.2020 06:55 0,5 C 4,0 C -0,4 C -0,2 C -1,5 C 0,0 C 69 % 75 % 1008,9 hPa 0,0 l/m 4,2 km/h (1 Bft) NW 315 0 min -4,5 C -1,5 C 5,3 km/h (1 Bft)
27.12.2020 07:00 0,5 C 4,0 C -0,3 C -0,2 C -1,6 C 0,0 C 68 % 74 % 1008,9 hPa 0,0 l/m 4,3 km/h (1 Bft) W 270 0 min -4,7 C -1,6 C 4,2 km/h (1 Bft)
27.12.2020 07:05 0,5 C 4,0 C -0,3 C -0,4 C -2,1 C 0,0 C 68 % 74 % 1008,9 hPa 0,0 l/m 5,6 km/h (1 Bft) N-NO 22 0 min -4,7 C -4,3 C 1,8 km/h (1 Bft)
27.12.2020 07:10 0,5 C 4,0 C -0,4 C -0,4 C -2,1 C 0,0 C 68 % 74 % 1008,5 hPa 0,0 l/m 5,3 km/h (1 Bft) O-SO 112 0 min -4,7 C -4,1 C 2,9 km/h (1 Bft)
27.12.2020 07:15 0,5 C 4,0 C -0,5 C 0,0 C -0,9 C 0,0 C 68 % 74 % 1008,5 hPa 0,0 l/m 2,9 km/h (1 Bft) O-SO 112 0 min -4,7 C -0,9 C 2,1 km/h (1 Bft)
27.12.2020 07:20 0,3 C 4,0 C -0,5 C -0,2 C -1,1 C 0,0 C 68 % 75 % 1008,5 hPa 0,0 l/m 2,9 km/h (1 Bft) NO 45 0 min -4,9 C -1,1 C 2,7 km/h (1 Bft)
27.12.2020 07:25 0,3 C 4,0 C -0,6 C -0,2 C -1,2 C 0,0 C 69 % 75 % 1008,5 hPa 0,0 l/m 2,9 km/h (1 Bft) O-NO 67 0 min -4,7 C -1,2 C 3,4 km/h (1 Bft)
27.12.2020 07:30 0,1 C 4,0 C -0,6 C -0,3 C -1,1 C 0,0 C 69 % 75 % 1008,4 hPa 0,0 l/m 2,4 km/h (1 Bft) O-SO 112 0 min -4,9 C -1,1 C 4,0 km/h (1 Bft)
27.12.2020 07:35 -0,1 C 4,0 C -0,7 C -0,4 C -1,1 C 0,0 C 70 % 75 % 1008,4 hPa 0,0 l/m 2,3 km/h (1 Bft) SO 135 0 min -4,9 C -1,1 C 2,7 km/h (1 Bft)
27.12.2020 07:40 -0,1 C 4,1 C -0,8 C -0,5 C -1,4 C 0,0 C 70 % 76 % 1008,4 hPa 0,0 l/m 2,4 km/h (1 Bft) SO 135 0 min -4,9 C -1,4 C 2,7 km/h (1 Bft)
27.12.2020 07:45 -0,1 C 4,1 C -0,9 C -0,6 C -1,5 C 0,0 C 71 % 76 % 1008,4 hPa 0,0 l/m 1,9 km/h (1 Bft) NO 45 0 min -4,7 C -1,5 C 2,6 km/h (1 Bft)
27.12.2020 07:50 -0,3 C 4,1 C -0,9 C -0,7 C -1,5 C 0,0 C 71 % 76 % 1008,2 hPa 0,0 l/m 1,6 km/h (1 Bft) W-SW 247 0 min -4,9 C -1,5 C 1,9 km/h (1 Bft)
27.12.2020 07:55 -0,3 C 4,1 C -1,0 C -0,7 C -1,6 C 0,0 C 71 % 76 % 1008,2 hPa 0,0 l/m 1,6 km/h (1 Bft) SO 135 0 min -4,9 C -1,6 C 2,9 km/h (1 Bft)
27.12.2020 08:00 -0,4 C 4,1 C -0,9 C -0,8 C -1,6 C 0,0 C 71 % 76 % 1008,2 hPa 0,0 l/m 2,1 km/h (1 Bft) O-NO 67 0 min -5,0 C -1,6 C 5,3 km/h (1 Bft)
27.12.2020 08:05 -0,3 C 4,1 C -1,0 C -0,7 C -1,6 C 0,0 C 71 % 76 % 1008,2 hPa 0,0 l/m 2,4 km/h (1 Bft) S 180 0 min -4,9 C -1,6 C 4,2 km/h (1 Bft)
27.12.2020 08:10 -0,3 C 4,1 C -1,1 C -0,7 C -1,6 C 0,0 C 71 % 76 % 1007,9 hPa 0,0 l/m 2,1 km/h (1 Bft) O 90 0 min -4,9 C -1,6 C 0,0 km/h (0 Bft)
27.12.2020 08:15 -0,3 C 4,1 C -1,1 C -0,7 C -1,6 C 0,0 C 71 % 76 % 1007,9 hPa 0,0 l/m 1,9 km/h (1 Bft) S-SO 157 0 min -4,9 C -1,6 C 3,7 km/h (1 Bft)
27.12.2020 08:20 -0,4 C 4,1 C -1,1 C -0,8 C -1,6 C 0,0 C 71 % 76 % 1007,9 hPa 0,0 l/m 1,8 km/h (1 Bft) N-NO 22 0 min -5,0 C -1,6 C 5,1 km/h (1 Bft)
27.12.2020 08:25 -0,3 C 4,1 C -1,0 C -0,9 C -2,2 C 0,0 C 71 % 76 % 1007,9 hPa 0,0 l/m 3,1 km/h (1 Bft) O-SO 112 0 min -4,9 C -2,2 C 3,7 km/h (1 Bft)
27.12.2020 08:30 -0,3 C 4,1 C -1,0 C -1,1 C -2,8 C 0,0 C 70 % 76 % 1007,2 hPa 0,0 l/m 4,3 km/h (1 Bft) N-NO 22 0 min -5,1 C -2,8 C 5,6 km/h (1 Bft)
27.12.2020 08:35 -0,1 C 4,1 C -1,0 C -1,0 C -2,7 C 0,0 C 70 % 76 % 1007,2 hPa 0,0 l/m 4,3 km/h (1 Bft) S 180 0 min -4,9 C -2,7 C 3,1 km/h (1 Bft)
27.12.2020 08:40 -0,1 C 4,0 C -1,0 C -0,9 C -2,4 C 0,0 C 70 % 76 % 1007,2 hPa 0,0 l/m 4,0 km/h (1 Bft) NW 315 0 min -4,9 C -2,4 C 5,6 km/h (1 Bft)
27.12.2020 08:45 -0,1 C 4,0 C -0,9 C -0,7 C -1,8 C 0,0 C 70 % 76 % 1007,2 hPa 0,0 l/m 3,2 km/h (1 Bft) S-SO 157 0 min -4,9 C -1,8 C 4,7 km/h (1 Bft)
27.12.2020 08:50 -0,3 C 4,0 C -0,9 C -0,8 C -1,7 C 0,0 C 70 % 76 % 1006,5 hPa 0,0 l/m 3,1 km/h (1 Bft) S-SO 157 0 min -5,1 C -1,7 C 3,1 km/h (1 Bft)
27.12.2020 08:55 -0,1 C 3,9 C -0,9 C -0,7 C -1,8 C 0,0 C 70 % 76 % 1006,5 hPa 0,0 l/m 3,2 km/h (1 Bft) S 180 0 min -4,9 C -1,8 C 9,5 km/h (2 Bft)
27.12.2020 09:00 -0,1 C 3,9 C -0,8 C -0,8 C -2,3 C 0,0 C 70 % 75 % 1006,5 hPa 0,0 l/m 4,2 km/h (1 Bft) W 270 0 min -4,9 C -2,3 C 9,2 km/h (2 Bft)
27.12.2020 09:05 -0,2 C 3,9 C -0,8 C -1,0 C -2,6 C 0,0 C 70 % 75 % 1006,5 hPa 0,0 l/m 5,0 km/h (1 Bft) W-NW 292 0 min -5,0 C -4,5 C 6,8 km/h (2 Bft)
27.12.2020 09:10 -0,1 C 3,9 C -0,7 C -1,0 C -2,9 C 0,0 C 69 % 75 % 1006,1 hPa 0,0 l/m 6,0 km/h (2 Bft) S 180 0 min -5,1 C -5,4 C 11,3 km/h (2 Bft)
27.12.2020 09:15 -0,1 C 3,9 C -0,7 C -1,0 C -2,7 C 0,0 C 69 % 74 % 1006,1 hPa 0,0 l/m 6,0 km/h (2 Bft) NO 45 0 min -5,1 C -5,1 C 5,8 km/h (2 Bft)
27.12.2020 09:20 -0,1 C 3,9 C -0,5 C -1,0 C -2,9 C 0,0 C 68 % 74 % 1006,1 hPa 0,0 l/m 6,6 km/h (2 Bft) SO 135 0 min -5,3 C -5,6 C 13,5 km/h (3 Bft)
27.12.2020 09:25 0,0 C 3,9 C -0,5 C -0,7 C -3,2 C 0,0 C 68 % 74 % 1006,1 hPa 0,0 l/m 8,4 km/h (2 Bft) O-SO 112 0 min -5,2 C -6,6 C 9,0 km/h (2 Bft)
27.12.2020 09:30 0,0 C 3,9 C -0,5 C -1,0 C -2,9 C 0,0 C 68 % 74 % 1005,9 hPa 0,0 l/m 7,6 km/h (2 Bft) NW 315 0 min -5,2 C -6,0 C 3,4 km/h (1 Bft)
27.12.2020 09:35 0,0 C 3,9 C -0,4 C -0,7 C -2,1 C 0,0 C 68 % 73 % 1005,9 hPa 0,0 l/m 5,6 km/h (1 Bft) S 180 0 min -5,2 C -4,3 C 4,3 km/h (1 Bft)
27.12.2020 09:40 0,1 C 3,9 C -0,4 C -0,7 C -2,2 C 0,0 C 67 % 72 % 1005,9 hPa 0,0 l/m 5,8 km/h (2 Bft) O-NO 67 0 min -5,3 C -4,5 C 12,6 km/h (3 Bft)
27.12.2020 09:45 0,1 C 3,9 C -0,3 C -0,6 C -1,9 C 0,0 C 67 % 72 % 1005,9 hPa 0,0 l/m 5,3 km/h (1 Bft) O 90 0 min -5,3 C -3,9 C 3,5 km/h (1 Bft)
27.12.2020 09:50 0,2 C 3,9 C -0,3 C -0,4 C -1,7 C 0,0 C 67 % 72 % 1005,4 hPa 0,0 l/m 5,3 km/h (1 Bft) S 180 0 min -5,2 C -3,7 C 6,4 km/h (2 Bft)
27.12.2020 09:55 0,3 C 3,9 C -0,3 C -0,1 C -1,0 C 0,0 C 67 % 72 % 1005,4 hPa 0,0 l/m 3,9 km/h (1 Bft) S 180 0 min -5,1 C -1,0 C 4,0 km/h (1 Bft)
27.12.2020 10:00 0,2 C 3,9 C -0,3 C -0,1 C -0,6 C 0,0 C 67 % 72 % 1005,4 hPa 0,0 l/m 3,2 km/h (1 Bft) N-NO 22 0 min -5,2 C -0,6 C 2,1 km/h (1 Bft)
27.12.2020 10:05 0,3 C 3,9 C -0,2 C 0,2 C 0,1 C 0,0 C 67 % 72 % 1005,4 hPa 0,0 l/m 2,4 km/h (1 Bft) N-NO 22 0 min -5,1 C 0,1 C 3,5 km/h (1 Bft)
27.12.2020 10:10 0,2 C 3,9 C -0,2 C 0,2 C 0,1 C 0,0 C 67 % 72 % 1005,3 hPa 0,0 l/m 2,6 km/h (1 Bft) W-NW 292 0 min -5,2 C 0,1 C 2,4 km/h (1 Bft)
27.12.2020 10:15 0,3 C 3,9 C -0,1 C 0,2 C -0,1 C 0,0 C 67 % 72 % 1005,3 hPa 0,0 l/m 3,1 km/h (1 Bft) O-NO 67 0 min -5,1 C -0,1 C 2,7 km/h (1 Bft)
27.12.2020 10:20 0,4 C 3,9 C -0,1 C 0,3 C 0,2 C 0,0 C 67 % 72 % 1005,3 hPa 0,0 l/m 2,7 km/h (1 Bft) W-NW 292 0 min -5,0 C 0,2 C 2,6 km/h (1 Bft)
27.12.2020 10:25 0,4 C 3,9 C -0,1 C 0,6 C 0,6 C 0,2 C 67 % 72 % 1005,3 hPa 0,0 l/m 2,4 km/h (1 Bft) N-NO 22 0 min -5,0 C 0,6 C 2,6 km/h (1 Bft)
27.12.2020 10:30 0,4 C 3,9 C 0,1 C 0,4 C 0,4 C 0,0 C 66 % 71 % 1005,1 hPa 0,0 l/m 2,9 km/h (1 Bft) O-NO 67 0 min -5,2 C 0,4 C 4,5 km/h (1 Bft)
27.12.2020 10:35 0,5 C 3,9 C 0,2 C 0,8 C 0,8 C 0,3 C 66 % 70 % 1005,1 hPa 0,0 l/m 2,6 km/h (1 Bft) S-SO 157 0 min -5,1 C 0,8 C 3,4 km/h (1 Bft)
27.12.2020 10:40 0,7 C 3,9 C 0,4 C 1,0 C 1,0 C 0,3 C 66 % 70 % 1005,1 hPa 0,0 l/m 2,3 km/h (1 Bft) O-SO 112 0 min -4,9 C 1,0 C 3,2 km/h (1 Bft)
27.12.2020 10:45 0,7 C 3,9 C 0,6 C 0,7 C 0,6 C 0,0 C 66 % 69 % 1005,1 hPa 0,0 l/m 3,5 km/h (1 Bft) S-SO 157 0 min -4,9 C 0,6 C 12,6 km/h (3 Bft)
27.12.2020 10:50 0,8 C 3,9 C 0,7 C 0,8 C 0,7 C 0,0 C 66 % 70 % 1004,6 hPa 0,0 l/m 3,7 km/h (1 Bft) S 180 0 min -4,8 C 0,7 C 4,8 km/h (1 Bft)
27.12.2020 10:55 1,0 C 3,9 C 0,8 C 1,0 C 0,9 C 0,0 C 65 % 69 % 1004,6 hPa 0,0 l/m 3,9 km/h (1 Bft) N-NO 22 0 min -4,8 C 0,9 C 7,6 km/h (2 Bft)
27.12.2020 11:00 1,1 C 3,9 C 0,9 C 1,1 C 1,1 C 0,0 C 65 % 69 % 1004,6 hPa 0,0 l/m 3,7 km/h (1 Bft) S-SO 157 0 min -4,7 C 1,1 C 4,2 km/h (1 Bft)
27.12.2020 11:05 1,1 C 3,8 C 1,0 C 1,2 C 1,2 C 0,1 C 64 % 68 % 1004,6 hPa 0,0 l/m 3,5 km/h (1 Bft) SW 225 0 min -4,9 C 1,2 C 7,7 km/h (2 Bft)
27.12.2020 11:10 1,1 C 3,8 C 1,0 C 1,2 C 1,2 C 0,1 C 64 % 68 % 1005,1 hPa 0,0 l/m 3,5 km/h (1 Bft) SW 225 0 min -4,9 C 1,2 C 7,7 km/h (2 Bft)
27.12.2020 11:15 1,3 C 3,8 C 1,1 C 2,0 C 2,0 C 0,7 C 64 % 67 % 1005,1 hPa 0,0 l/m 2,6 km/h (1 Bft) S 180 0 min -4,7 C 2,0 C 7,1 km/h (2 Bft)
27.12.2020 11:20 1,3 C 3,8 C 1,2 C 2,0 C 2,0 C 0,7 C 64 % 67 % 1005,1 hPa 0,0 l/m 2,4 km/h (1 Bft) S 180 0 min -4,7 C 2,0 C 3,2 km/h (1 Bft)
27.12.2020 11:25 1,5 C 3,8 C 1,3 C 2,2 C 2,2 C 0,7 C 63 % 67 % 1005,1 hPa 0,0 l/m 2,6 km/h (1 Bft) N-NO 22 0 min -4,8 C 2,2 C 1,8 km/h (1 Bft)
27.12.2020 11:30 1,5 C 3,8 C 1,3 C 2,3 C 2,3 C 0,8 C 63 % 67 % 1003,9 hPa 0,0 l/m 1,8 km/h (1 Bft) S-SO 157 0 min -4,8 C 2,3 C 3,2 km/h (1 Bft)
27.12.2020 11:35 1,6 C 3,8 C 1,5 C 2,4 C 2,4 C 0,8 C 62 % 67 % 1003,9 hPa 0,0 l/m 1,6 km/h (1 Bft) SO 135 0 min -4,9 C 2,4 C 0,0 km/h (0 Bft)
27.12.2020 11:40 1,6 C 3,8 C 1,5 C 2,4 C 2,4 C 0,8 C 62 % 67 % 1003,9 hPa 0,0 l/m 1,6 km/h (1 Bft) S 180 0 min -4,9 C 2,4 C 2,1 km/h (1 Bft)
27.12.2020 11:45 1,7 C 3,8 C 1,5 C 2,5 C 2,5 C 0,8 C 61 % 65 % 1003,9 hPa 0,0 l/m 1,8 km/h (1 Bft) SW 225 0 min -5,0 C 2,5 C 0,0 km/h (0 Bft)
27.12.2020 11:50 1,8 C 3,8 C 1,5 C 2,5 C 2,5 C 0,7 C 61 % 65 % 1003,2 hPa 0,0 l/m 1,6 km/h (1 Bft) N-NO 22 0 min -4,9 C 2,5 C 1,9 km/h (1 Bft)
27.12.2020 11:55 1,8 C 3,8 C 1,6 C 2,5 C 2,5 C 0,7 C 61 % 64 % 1003,2 hPa 0,0 l/m 1,8 km/h (1 Bft) S-SO 157 0 min -4,9 C 2,5 C 2,3 km/h (1 Bft)
27.12.2020 12:00 1,9 C 3,8 C 1,6 C 2,6 C 2,6 C 0,7 C 61 % 64 % 1003,2 hPa 0,0 l/m 1,9 km/h (1 Bft) NW 315 0 min -4,8 C 2,6 C 0,0 km/h (0 Bft)
27.12.2020 12:05 2,0 C 3,8 C 1,7 C 2,7 C 2,7 C 0,7 C 60 % 64 % 1003,2 hPa 0,0 l/m 2,7 km/h (1 Bft) S 180 0 min -4,9 C 2,7 C 10,6 km/h (2 Bft)
27.12.2020 12:10 2,0 C 3,8 C 1,8 C 2,3 C 2,3 C 0,3 C 60 % 64 % 1003,0 hPa 0,0 l/m 3,4 km/h (1 Bft) SO 135 0 min -4,9 C 2,3 C 1,9 km/h (1 Bft)
27.12.2020 12:15 2,0 C 3,8 C 1,8 C 2,1 C 2,1 C 0,1 C 59 % 64 % 1003,0 hPa 0,0 l/m 4,0 km/h (1 Bft) O-NO 67 0 min -5,2 C 2,1 C 5,0 km/h (1 Bft)
27.12.2020 12:20 2,1 C 3,8 C 1,9 C 2,2 C 2,2 C 0,1 C 59 % 63 % 1003,0 hPa 0,0 l/m 4,2 km/h (1 Bft) W 270 0 min -5,1 C 2,2 C 2,6 km/h (1 Bft)
27.12.2020 12:25 2,3 C 3,8 C 2,0 C 2,6 C 2,6 C 0,3 C 58 % 63 % 1003,0 hPa 0,0 l/m 3,7 km/h (1 Bft) O 90 0 min -5,1 C 2,6 C 4,2 km/h (1 Bft)
27.12.2020 12:30 2,2 C 3,8 C 2,0 C 2,7 C 2,7 C 0,5 C 58 % 62 % 1002,6 hPa 0,0 l/m 3,4 km/h (1 Bft) S-SO 157 0 min -5,2 C 2,7 C 6,3 km/h (2 Bft)
27.12.2020 12:35 2,3 C 3,8 C 2,1 C 2,7 C 2,7 C 0,4 C 57 % 62 % 1002,6 hPa 0,0 l/m 3,7 km/h (1 Bft) NO 45 0 min -5,3 C 2,7 C 3,4 km/h (1 Bft)
27.12.2020 12:40 2,4 C 3,9 C 2,1 C 2,8 C 2,8 C 0,4 C 57 % 61 % 1002,6 hPa 0,0 l/m 3,4 km/h (1 Bft) O-NO 67 0 min -5,2 C 2,8 C 2,7 km/h (1 Bft)
27.12.2020 12:45 2,5 C 3,9 C 2,2 C 3,2 C 3,2 C 0,7 C 57 % 61 % 1002,6 hPa 0,0 l/m 2,6 km/h (1 Bft) NO 45 0 min -5,1 C 3,2 C 5,3 km/h (1 Bft)
27.12.2020 12:51 2,4 C 3,8 C 2,2 C 3,2 C 3,2 C 0,8 C 57 % 60 % 1001,8 hPa 0,0 l/m 2,3 km/h (1 Bft) N 360 0 min -5,2 C 3,2 C 1,6 km/h (1 Bft)
27.12.2020 12:55 2,4 C 3,8 C 2,2 C 3,1 C 3,1 C 0,7 C 57 % 60 % 1001,8 hPa 0,0 l/m 2,1 km/h (1 Bft) W-SW 247 0 min -5,2 C 3,1 C 4,0 km/h (1 Bft)
27.12.2020 13:02 2,5 C 3,8 C 2,1 C 3,1 C 3,1 C 0,6 C 56 % 60 % 1001,8 hPa 0,0 l/m 2,7 km/h (1 Bft) O-NO 67 0 min -5,4 C 3,1 C 3,2 km/h (1 Bft)
27.12.2020 13:03 2,5 C 3,8 C 2,2 C 2,5 C 2,5 C 0,0 C 56 % 60 % 1001,8 hPa 0,0 l/m 3,9 km/h (1 Bft) S 180 0 min -5,4 C 2,5 C 6,1 km/h (2 Bft)
27.12.2020 13:04 2,5 C 3,8 C 2,2 C 2,5 C 2,5 C 0,0 C 56 % 60 % 1001,8 hPa 0,0 l/m 3,9 km/h (1 Bft) S 180 0 min -5,4 C 2,5 C 6,1 km/h (2 Bft)
27.12.2020 13:05 2,5 C 3,8 C 2,2 C 2,5 C 2,5 C 0,0 C 56 % 60 % 1001,8 hPa 0,0 l/m 3,9 km/h (1 Bft) S 180 0 min -5,4 C 2,5 C 6,1 km/h (2 Bft)
27.12.2020 13:06 2,5 C 3,8 C 2,2 C 2,5 C 2,5 C 0,0 C 56 % 60 % 1001,8 hPa 0,0 l/m 3,9 km/h (1 Bft) S 180 0 min -5,4 C 2,5 C 6,1 km/h (2 Bft)
27.12.2020 13:07 2,0 C 3,8 C 1,8 C 2,3 C 2,3 C 0,3 C 60 % 64 % 1003,0 hPa 0,0 l/m 3,4 km/h (1 Bft) SO 135 0 min -4,9 C 2,3 C 1,9 km/h (1 Bft)
27.12.2020 13:12 2,0 C 3,8 C 1,8 C 2,1 C 2,1 C 0,1 C 59 % 64 % 1003,0 hPa 0,0 l/m 4,0 km/h (1 Bft) O-NO 67 0 min -5,2 C 2,1 C 5,0 km/h (1 Bft)
27.12.2020 13:17 2,1 C 3,8 C 1,9 C 2,2 C 2,2 C 0,1 C 59 % 63 % 1003,0 hPa 0,0 l/m 4,2 km/h (1 Bft) W 270 0 min -5,1 C 2,2 C 2,6 km/h (1 Bft)
27.12.2020 13:22 2,3 C 3,8 C 2,0 C 2,6 C 2,6 C 0,3 C 58 % 63 % 1003,0 hPa 0,0 l/m 3,7 km/h (1 Bft) O 90 0 min -5,1 C 2,6 C 4,2 km/h (1 Bft)
27.12.2020 13:27 2,2 C 3,8 C 2,0 C 2,7 C 2,7 C 0,5 C 58 % 62 % 1002,6 hPa 0,0 l/m 3,4 km/h (1 Bft) S-SO 157 0 min -5,2 C 2,7 C 6,3 km/h (2 Bft)
27.12.2020 13:32 2,3 C 3,8 C 2,1 C 2,7 C 2,7 C 0,4 C 57 % 62 % 1002,6 hPa 0,0 l/m 3,7 km/h (1 Bft) NO 45 0 min -5,3 C 2,7 C 3,4 km/h (1 Bft)
27.12.2020 13:37 2,4 C 3,9 C 2,1 C 2,8 C 2,8 C 0,4 C 57 % 61 % 1002,6 hPa 0,0 l/m 3,4 km/h (1 Bft) O-NO 67 0 min -5,2 C 2,8 C 2,7 km/h (1 Bft)
27.12.2020 13:42 2,5 C 3,9 C 2,2 C 3,2 C 3,2 C 0,7 C 57 % 61 % 1002,6 hPa 0,0 l/m 2,6 km/h (1 Bft) NO 45 0 min -5,1 C 3,2 C 5,3 km/h (1 Bft)
27.12.2020 13:47 2,4 C 3,8 C 2,2 C 3,2 C 3,2 C 0,8 C 57 % 60 % 1001,8 hPa 0,0 l/m 2,3 km/h (1 Bft) N 360 0 min -5,2 C 3,2 C 1,6 km/h (1 Bft)
27.12.2020 13:52 2,4 C 3,8 C 2,2 C 3,1 C 3,1 C 0,7 C 57 % 60 % 1001,8 hPa 0,0 l/m 2,1 km/h (1 Bft) W-SW 247 0 min -5,2 C 3,1 C 4,0 km/h (1 Bft)
27.12.2020 13:57 2,5 C 3,8 C 2,1 C 3,1 C 3,1 C 0,6 C 56 % 60 % 1001,8 hPa 0,0 l/m 2,7 km/h (1 Bft) O-NO 67 0 min -5,4 C 3,1 C 3,2 km/h (1 Bft)
27.12.2020 13:12 2,5 C 3,8 C 2,2 C 2,4 C 2,3 C 0,0 C 56 % 59 % 1001,3 hPa 0,0 l/m 4,2 km/h (1 Bft) O-NO 67 0 min -5,4 C 2,3 C 11,6 km/h (2 Bft)
27.12.2020 13:15 2,5 C 3,8 C 2,2 C 2,3 C 1,9 C 0,0 C 55 % 59 % 1001,3 hPa 0,0 l/m 5,1 km/h (1 Bft) O-NO 67 0 min -5,6 C 0,5 C 11,4 km/h (2 Bft)
27.12.2020 13:20 2,7 C 3,8 C 2,3 C 2,4 C 1,9 C 0,0 C 54 % 58 % 1001,3 hPa 0,0 l/m 5,0 km/h (1 Bft) O-SO 112 0 min -5,7 C 0,6 C 4,8 km/h (1 Bft)
27.12.2020 13:25 2,7 C 3,8 C 2,2 C 2,6 C 2,4 C 0,0 C 54 % 59 % 1001,3 hPa 0,0 l/m 4,0 km/h (1 Bft) S 180 0 min -5,7 C 2,4 C 6,6 km/h (2 Bft)
27.12.2020 13:30 2,7 C 3,8 C 2,2 C 2,7 C 2,7 C 0,0 C 54 % 59 % 1000,5 hPa 0,0 l/m 3,4 km/h (1 Bft) S 180 0 min -5,7 C 2,7 C 2,7 km/h (1 Bft)
27.12.2020 13:35 2,7 C 3,8 C 2,2 C 3,1 C 3,1 C 0,4 C 55 % 60 % 1000,5 hPa 0,0 l/m 1,8 km/h (1 Bft) O-NO 67 0 min -5,4 C 3,1 C 0,0 km/h (0 Bft)
27.12.2020 13:40 2,6 C 3,8 C 2,1 C 3,0 C 3,0 C 0,4 C 55 % 60 % 1000,5 hPa 0,0 l/m 1,3 km/h (1 Bft) O 90 0 min -5,5 C 3,0 C 1,6 km/h (1 Bft)
27.12.2020 13:45 2,6 C 3,8 C 2,1 C 3,0 C 3,0 C 0,4 C 55 % 58 % 1000,5 hPa 0,0 l/m 1,4 km/h (1 Bft) S-SW 202 0 min -5,5 C 3,0 C 2,3 km/h (1 Bft)
27.12.2020 13:50 2,6 C 3,8 C 2,2 C 2,9 C 2,9 C 0,3 C 55 % 59 % 999,9 hPa 0,0 l/m 1,1 km/h (1 Bft) O-SO 112 0 min -5,5 C 2,9 C 0,0 km/h (0 Bft)
27.12.2020 13:55 2,7 C 3,8 C 2,2 C 2,9 C 2,9 C 0,2 C 55 % 58 % 999,9 hPa 0,0 l/m 1,8 km/h (1 Bft) O-NO 67 0 min -5,4 C 2,9 C 2,6 km/h (1 Bft)
27.12.2020 14:00 2,5 C 3,8 C 2,1 C 2,8 C 2,8 C 0,3 C 55 % 59 % 999,9 hPa 0,0 l/m 1,4 km/h (1 Bft) O-SO 112 0 min -5,6 C 2,8 C 2,3 km/h (1 Bft)
27.12.2020 14:05 2,5 C 3,8 C 2,1 C 2,8 C 2,8 C 0,3 C 55 % 59 % 999,9 hPa 0,0 l/m 2,4 km/h (1 Bft) S-SO 157 0 min -5,6 C 2,8 C 6,1 km/h (2 Bft)
27.12.2020 14:11 2,7 C 3,8 C 2,1 C 2,6 C 2,4 C 0,0 C 54 % 58 % 999,7 hPa 0,0 l/m 3,2 km/h (1 Bft) N 0 0 min -5,7 C 2,4 C 2,7 km/h (1 Bft)
27.12.2020 14:26 2,7 C 3,8 C 2,0 C 2,7 C 2,6 C 0,0 C 54 % 58 % 999,7 hPa 0,0 l/m 1,4 km/h (1 Bft) O-NO 67 0 min -5,7 C 2,6 C 0,0 km/h (0 Bft)
27.12.2020 14:37 2,7 C 3,8 C 2,0 C 2,6 C 2,5 C 0,0 C 53 % 57 % 999,3 hPa 0,0 l/m 1,6 km/h (1 Bft) SO 135 0 min -5,9 C 2,5 C 2,7 km/h (1 Bft)
27.12.2020 14:38 2,7 C 3,8 C 2,0 C 2,6 C 2,5 C 0,0 C 53 % 57 % 999,3 hPa 0,0 l/m 1,6 km/h (1 Bft) SO 135 0 min -5,9 C 2,5 C 2,7 km/h (1 Bft)
27.12.2020 14:40 2,7 C 3,8 C 2,0 C 2,6 C 2,5 C 0,0 C 53 % 57 % 999,3 hPa 0,0 l/m 1,6 km/h (1 Bft) SO 135 0 min -5,9 C 2,5 C 2,7 km/h (1 Bft)
27.12.2020 14:45 2,7 C 3,8 C 2,1 C 2,6 C 2,5 C 0,0 C 53 % 56 % 999,3 hPa 0,0 l/m 1,9 km/h (1 Bft) O-SO 112 0 min -5,9 C 2,5 C 2,1 km/h (1 Bft)
27.12.2020 14:50 2,6 C 3,8 C 2,1 C 2,6 C 2,5 C 0,0 C 53 % 56 % 998,6 hPa 0,0 l/m 1,9 km/h (1 Bft) W 270 0 min -6,0 C 2,5 C 1,8 km/h (1 Bft)
27.12.2020 14:55 2,6 C 3,8 C 2,0 C 2,6 C 2,5 C 0,0 C 52 % 56 % 998,6 hPa 0,0 l/m 2,1 km/h (1 Bft) S 180 0 min -6,2 C 2,5 C 3,5 km/h (1 Bft)
27.12.2020 15:00 2,7 C 3,8 C 2,0 C 2,6 C 2,5 C 0,0 C 52 % 56 % 998,6 hPa 0,0 l/m 2,3 km/h (1 Bft) N-NO 22 0 min -6,2 C 2,5 C 1,6 km/h (1 Bft)
27.12.2020 15:05 2,7 C 3,8 C 1,9 C 2,6 C 2,4 C 0,0 C 52 % 55 % 998,6 hPa 0,0 l/m 1,6 km/h (1 Bft) O 90 0 min -6,2 C 2,4 C 2,4 km/h (1 Bft)
27.12.2020 15:10 2,7 C 3,8 C 1,9 C 2,6 C 2,3 C 0,0 C 52 % 55 % 998,1 hPa 0,0 l/m 1,1 km/h (1 Bft) O-SO 112 0 min -6,2 C 2,3 C 0,0 km/h (0 Bft)
27.12.2020 15:15 2,6 C 3,8 C 1,9 C 2,4 C 2,1 C 0,0 C 52 % 56 % 998,1 hPa 0,0 l/m 1,3 km/h (1 Bft) SO 135 0 min -6,2 C 2,1 C 4,0 km/h (1 Bft)
27.12.2020 15:20 2,5 C 3,8 C 1,8 C 2,3 C 2,0 C 0,0 C 52 % 56 % 998,1 hPa 0,0 l/m 1,4 km/h (1 Bft) O 90 0 min -6,3 C 2,0 C 0,0 km/h (0 Bft)
27.12.2020 15:25 2,4 C 3,9 C 1,7 C 2,2 C 1,8 C 0,0 C 53 % 57 % 998,1 hPa 0,0 l/m 1,4 km/h (1 Bft) O 90 0 min -6,2 C 1,8 C 2,7 km/h (1 Bft)
27.12.2020 15:30 2,3 C 3,9 C 1,7 C 2,1 C 1,7 C 0,0 C 53 % 57 % 998,1 hPa 0,0 l/m 1,8 km/h (1 Bft) O-NO 67 0 min -6,3 C 1,7 C 2,7 km/h (1 Bft)
27.12.2020 15:35 2,3 C 3,9 C 1,5 C 2,0 C 1,4 C 0,0 C 54 % 58 % 998,1 hPa 0,0 l/m 2,7 km/h (1 Bft) O 90 0 min -6,0 C 1,4 C 3,1 km/h (1 Bft)
27.12.2020 15:40 2,0 C 3,9 C 1,4 C 1,8 C 1,4 C 0,0 C 55 % 59 % 998,1 hPa 0,0 l/m 2,6 km/h (1 Bft) O-NO 67 0 min -6,1 C 1,4 C 3,2 km/h (1 Bft)
27.12.2020 15:45 2,0 C 3,9 C 1,1 C 1,7 C 1,2 C 0,0 C 56 % 60 % 998,1 hPa 0,0 l/m 2,1 km/h (1 Bft) O 90 0 min -5,8 C 1,2 C 6,4 km/h (2 Bft)
27.12.2020 15:50 1,9 C 3,9 C 1,1 C 1,6 C 1,0 C 0,0 C 56 % 61 % 997,7 hPa 0,0 l/m 1,9 km/h (1 Bft) O-NO 67 0 min -5,9 C 1,0 C 3,1 km/h (1 Bft)
27.12.2020 15:55 1,9 C 3,9 C 1,0 C 1,6 C 0,9 C 0,0 C 56 % 62 % 997,7 hPa 0,0 l/m 2,4 km/h (1 Bft) S-SO 157 0 min -5,9 C 0,9 C 2,9 km/h (1 Bft)
27.12.2020 16:00 1,7 C 3,9 C 1,0 C 1,3 C 0,6 C 0,0 C 57 % 61 % 997,7 hPa 0,0 l/m 2,9 km/h (1 Bft) S 180 0 min -5,9 C 0,6 C 3,1 km/h (1 Bft)
27.12.2020 16:05 1,6 C 3,9 C 0,9 C 1,3 C 0,7 C 0,0 C 57 % 62 % 997,7 hPa 0,0 l/m 2,6 km/h (1 Bft) O 90 0 min -6,0 C 0,7 C 0,0 km/h (0 Bft)
27.12.2020 16:11 1,7 C 3,9 C 0,7 C 1,4 C 0,7 C 0,0 C 57 % 63 % 997,2 hPa 0,0 l/m 2,1 km/h (1 Bft) N 0 0 min -5,9 C 0,7 C 2,6 km/h (1 Bft)
27.12.2020 16:26 1,5 C 3,9 C 0,7 C 1,2 C 0,5 C 0,0 C 58 % 62 % 997,2 hPa 0,0 l/m 2,1 km/h (1 Bft) O 90 0 min -5,8 C 0,5 C 2,6 km/h (1 Bft)
27.12.2020 16:37 1,3 C 3,9 C 0,6 C 1,0 C 0,4 C 0,0 C 58 % 63 % 997,1 hPa 0,0 l/m 1,4 km/h (1 Bft) O-SO 112 0 min -6,0 C 0,4 C 0,0 km/h (0 Bft)
27.12.2020 16:38 1,3 C 3,9 C 0,6 C 1,0 C 0,4 C 0,0 C 58 % 63 % 997,1 hPa 0,0 l/m 1,4 km/h (1 Bft) O-SO 112 0 min -6,0 C 0,4 C 0,0 km/h (0 Bft)
27.12.2020 16:40 1,3 C 3,9 C 0,6 C 1,0 C 0,4 C 0,0 C 58 % 63 % 997,1 hPa 0,0 l/m 1,4 km/h (1 Bft) O-SO 112 0 min -6,0 C 0,4 C 0,0 km/h (0 Bft)
27.12.2020 16:45 1,4 C 3,9 C 0,6 C 1,1 C 0,4 C 0,0 C 57 % 62 % 997,1 hPa 0,0 l/m 1,9 km/h (1 Bft) N-NW 337 0 min -6,2 C 0,4 C 4,7 km/h (1 Bft)
27.12.2020 16:50 1,4 C 3,9 C 0,6 C 1,1 C 0,4 C 0,0 C 57 % 63 % 996,9 hPa 0,0 l/m 2,1 km/h (1 Bft) SO 135 0 min -6,2 C 0,4 C 2,3 km/h (1 Bft)
27.12.2020 16:55 1,3 C 3,9 C 0,7 C 1,0 C 0,3 C 0,0 C 57 % 62 % 996,9 hPa 0,0 l/m 2,6 km/h (1 Bft) N-NO 22 0 min -6,3 C 0,3 C 5,1 km/h (1 Bft)
27.12.2020 17:00 1,3 C 3,9 C 0,6 C 0,9 C 0,2 C 0,0 C 58 % 62 % 996,9 hPa 0,0 l/m 2,7 km/h (1 Bft) O 90 0 min -6,0 C 0,2 C 4,3 km/h (1 Bft)
27.12.2020 17:05 1,3 C 3,9 C 0,6 C 0,8 C -0,1 C 0,0 C 58 % 62 % 996,9 hPa 0,0 l/m 3,1 km/h (1 Bft) O-SO 112 0 min -6,0 C -0,1 C 2,3 km/h (1 Bft)
27.12.2020 17:10 1,2 C 3,9 C 0,6 C 0,8 C -0,1 C 0,0 C 58 % 62 % 996,2 hPa 0,0 l/m 3,1 km/h (1 Bft) NO 45 0 min -6,1 C -0,1 C 0,0 km/h (0 Bft)
27.12.2020 17:15 1,2 C 3,9 C 0,5 C 0,8 C 0,1 C 0,0 C 58 % 62 % 996,2 hPa 0,0 l/m 2,9 km/h (1 Bft) O 90 0 min -6,1 C 0,1 C 3,7 km/h (1 Bft)
27.12.2020 17:20 1,3 C 3,9 C 0,5 C 0,9 C 0,1 C 0,0 C 58 % 62 % 996,2 hPa 0,0 l/m 2,9 km/h (1 Bft) O 90 0 min -6,0 C 0,1 C 3,4 km/h (1 Bft)
27.12.2020 17:25 1,2 C 3,9 C 0,5 C 0,8 C 0,1 C 0,0 C 58 % 63 % 996,2 hPa 0,0 l/m 2,9 km/h (1 Bft) NO 45 0 min -6,1 C 0,1 C 3,1 km/h (1 Bft)
27.12.2020 17:30 1,1 C 3,9 C 0,5 C 0,8 C 0,2 C 0,0 C 58 % 63 % 995,6 hPa 0,0 l/m 2,7 km/h (1 Bft) O 90 0 min -6,2 C 0,2 C 6,3 km/h (2 Bft)
27.12.2020 17:35 1,1 C 3,9 C 0,5 C 0,8 C 0,2 C 0,0 C 59 % 63 % 995,6 hPa 0,0 l/m 2,7 km/h (1 Bft) W 270 0 min -6,0 C 0,2 C 1,8 km/h (1 Bft)
27.12.2020 17:40 1,1 C 3,9 C 0,4 C 0,8 C 0,1 C 0,0 C 59 % 62 % 995,6 hPa 0,0 l/m 2,9 km/h (1 Bft) NO 45 0 min -6,0 C 0,1 C 2,3 km/h (1 Bft)
27.12.2020 17:45 1,2 C 3,9 C 0,4 C 0,7 C -0,2 C 0,0 C 58 % 62 % 995,6 hPa 0,0 l/m 3,2 km/h (1 Bft) O-NO 67 0 min -6,1 C -0,2 C 3,4 km/h (1 Bft)
27.12.2020 17:50 1,2 C 3,9 C 0,4 C 0,7 C -0,3 C 0,0 C 58 % 62 % 995,2 hPa 0,0 l/m 3,4 km/h (1 Bft) NO 45 0 min -6,1 C -0,3 C 2,7 km/h (1 Bft)
27.12.2020 17:55 1,1 C 3,9 C 0,4 C 0,8 C 0,1 C 0,0 C 58 % 62 % 995,2 hPa 0,0 l/m 2,9 km/h (1 Bft) O-SO 112 0 min -6,2 C 0,1 C 5,5 km/h (1 Bft)
27.12.2020 18:00 1,1 C 3,9 C 0,3 C 0,8 C 0,3 C 0,0 C 58 % 62 % 995,2 hPa 0,0 l/m 2,6 km/h (1 Bft) S-SO 157 0 min -6,2 C 0,3 C 3,4 km/h (1 Bft)
27.12.2020 18:05 1,2 C 3,9 C 0,3 C 0,7 C -0,4 C 0,0 C 57 % 62 % 995,2 hPa 0,0 l/m 3,5 km/h (1 Bft) SO 135 0 min -6,4 C -0,4 C 3,4 km/h (1 Bft)
27.12.2020 18:11 1,2 C 3,9 C 0,3 C 0,7 C -0,3 C 0,0 C 57 % 62 % 995,0 hPa 0,0 l/m 3,4 km/h (1 Bft) N 0 0 min -6,4 C -0,3 C 6,1 km/h (2 Bft)
27.12.2020 18:26 1,1 C 3,9 C 0,3 C 0,9 C 0,4 C 0,0 C 57 % 62 % 995,0 hPa 0,0 l/m 2,3 km/h (1 Bft) O-SO 112 0 min -6,4 C 0,4 C 3,1 km/h (1 Bft)
27.12.2020 18:37 1,2 C 3,9 C 0,3 C 0,9 C 0,3 C 0,0 C 57 % 62 % 994,5 hPa 0,0 l/m 2,6 km/h (1 Bft) NW 315 0 min -6,4 C 0,3 C 1,6 km/h (1 Bft)
27.12.2020 18:38 1,2 C 3,9 C 0,3 C 0,9 C 0,3 C 0,0 C 57 % 62 % 994,5 hPa 0,0 l/m 2,6 km/h (1 Bft) NW 315 0 min -6,4 C 0,3 C 1,6 km/h (1 Bft)
27.12.2020 18:40 1,2 C 3,9 C 0,3 C 0,9 C 0,3 C 0,0 C 57 % 62 % 994,5 hPa 0,0 l/m 2,6 km/h (1 Bft) NW 315 0 min -6,4 C 0,3 C 1,6 km/h (1 Bft)
27.12.2020 18:45 1,2 C 3,9 C 0,3 C 0,9 C 0,4 C 0,0 C 57 % 62 % 994,5 hPa 0,0 l/m 2,1 km/h (1 Bft) NO 45 0 min -6,4 C 0,4 C 2,3 km/h (1 Bft)
27.12.2020 18:50 1,1 C 3,9 C 0,2 C 0,8 C 0,3 C 0,0 C 57 % 62 % 994,4 hPa 0,0 l/m 1,6 km/h (1 Bft) O-NO 67 0 min -6,4 C 0,3 C 2,7 km/h (1 Bft)
27.12.2020 18:55 1,0 C 3,9 C 0,3 C 0,8 C 0,3 C 0,0 C 57 % 62 % 994,4 hPa 0,0 l/m 1,4 km/h (1 Bft) O-NO 67 0 min -6,5 C 0,3 C 1,6 km/h (1 Bft)
27.12.2020 19:00 1,1 C 3,9 C 0,3 C 0,8 C 0,3 C 0,0 C 57 % 62 % 994,4 hPa 0,0 l/m 1,3 km/h (1 Bft) O-SO 112 0 min -6,4 C 0,3 C 0,0 km/h (0 Bft)
27.12.2020 19:05 1,1 C 3,9 C 0,3 C 0,8 C 0,3 C 0,0 C 57 % 62 % 994,4 hPa 0,0 l/m 1,6 km/h (1 Bft) O-SO 112 0 min -6,4 C 0,3 C 3,4 km/h (1 Bft)
27.12.2020 19:10 1,1 C 3,9 C 0,3 C 0,8 C 0,3 C 0,0 C 58 % 62 % 993,7 hPa 0,0 l/m 1,9 km/h (1 Bft) NO 45 0 min -6,2 C 0,3 C 3,7 km/h (1 Bft)
27.12.2020 19:15 1,1 C 3,9 C 0,5 C 0,9 C 0,4 C 0,0 C 58 % 62 % 993,7 hPa 0,0 l/m 2,3 km/h (1 Bft) O-SO 112 0 min -6,2 C 0,4 C 4,3 km/h (1 Bft)
27.12.2020 19:20 1,2 C 3,9 C 0,5 C 0,9 C 0,4 C 0,0 C 58 % 62 % 993,7 hPa 0,0 l/m 2,3 km/h (1 Bft) N-NW 337 0 min -6,1 C 0,4 C 2,1 km/h (1 Bft)
27.12.2020 19:25 1,2 C 3,9 C 0,5 C 0,9 C 0,4 C 0,0 C 58 % 63 % 993,7 hPa 0,0 l/m 2,3 km/h (1 Bft) O-NO 67 0 min -6,1 C 0,4 C 2,9 km/h (1 Bft)
27.12.2020 19:30 1,2 C 3,9 C 0,5 C 0,9 C 0,4 C 0,0 C 58 % 63 % 993,4 hPa 0,0 l/m 2,3 km/h (1 Bft) NO 45 0 min -6,1 C 0,4 C 2,7 km/h (1 Bft)
27.12.2020 19:35 1,2 C 3,9 C 0,5 C 0,9 C 0,4 C 0,0 C 58 % 63 % 993,4 hPa 0,0 l/m 2,6 km/h (1 Bft) O-NO 67 0 min -6,1 C 0,4 C 2,4 km/h (1 Bft)
27.12.2020 19:40 1,2 C 3,9 C 0,5 C 1,0 C 0,5 C 0,0 C 58 % 63 % 993,4 hPa 0,0 l/m 2,3 km/h (1 Bft) O-NO 67 0 min -6,1 C 0,5 C 6,8 km/h (2 Bft)
27.12.2020 19:45 1,2 C 3,9 C 0,5 C 1,0 C 0,5 C 0,0 C 59 % 63 % 993,4 hPa 0,0 l/m 2,4 km/h (1 Bft) S 180 0 min -5,9 C 0,5 C 2,9 km/h (1 Bft)
27.12.2020 19:50 1,2 C 3,9 C 0,5 C 1,0 C 0,5 C 0,0 C 59 % 63 % 993,2 hPa 0,0 l/m 2,6 km/h (1 Bft) NO 45 0 min -5,9 C 0,5 C 1,9 km/h (1 Bft)
27.12.2020 19:55 1,2 C 3,9 C 0,6 C 1,0 C 0,6 C 0,0 C 59 % 63 % 993,2 hPa 0,0 l/m 2,1 km/h (1 Bft) N 360 0 min -5,9 C 0,6 C 2,6 km/h (1 Bft)
27.12.2020 20:00 1,3 C 3,9 C 0,5 C 1,1 C 0,6 C 0,0 C 59 % 64 % 993,2 hPa 0,0 l/m 2,1 km/h (1 Bft) S 180 0 min -5,8 C 0,6 C 2,3 km/h (1 Bft)
27.12.2020 20:05 1,3 C 3,9 C 0,7 C 1,0 C 0,4 C 0,0 C 59 % 63 % 993,2 hPa 0,0 l/m 2,9 km/h (1 Bft) O-NO 67 0 min -5,8 C 0,4 C 5,6 km/h (1 Bft)
27.12.2020 20:11 1,4 C 3,9 C 0,7 C 1,0 C 0,3 C 0,0 C 59 % 63 % 992,9 hPa 0,0 l/m 3,1 km/h (1 Bft) N 0 0 min -5,7 C 0,3 C 4,5 km/h (1 Bft)
27.12.2020 20:26 1,4 C 3,9 C 0,6 C 1,2 C 0,8 C 0,0 C 60 % 65 % 992,9 hPa 0,0 l/m 2,4 km/h (1 Bft) NO 45 0 min -5,5 C 0,8 C 3,1 km/h (1 Bft)
27.12.2020 20:38 1,3 C 3,9 C 0,7 C 1,0 C 0,3 C 0,0 C 60 % 65 % 993,0 hPa 0,0 l/m 3,1 km/h (1 Bft) NO 45 0 min -5,6 C 0,3 C 9,0 km/h (2 Bft)
27.12.2020 20:40 1,3 C 3,9 C 0,7 C 1,0 C 0,3 C 0,0 C 60 % 65 % 993,0 hPa 0,0 l/m 3,1 km/h (1 Bft) NO 45 0 min -5,6 C 0,3 C 9,0 km/h (2 Bft)
27.12.2020 20:45 1,5 C 3,9 C 0,7 C 1,0 C -0,1 C 0,0 C 61 % 65 % 993,0 hPa 0,0 l/m 3,9 km/h (1 Bft) O-SO 112 0 min -5,2 C -0,1 C 5,0 km/h (1 Bft)
27.12.2020 20:50 1,4 C 3,9 C 0,8 C 0,8 C -0,5 C 0,0 C 61 % 65 % 992,2 hPa 0,0 l/m 4,8 km/h (1 Bft) SO 135 0 min -5,3 C -2,1 C 4,2 km/h (1 Bft)
27.12.2020 20:55 1,5 C 3,9 C 0,9 C 0,9 C -0,4 C 0,0 C 61 % 65 % 992,2 hPa 0,0 l/m 4,7 km/h (1 Bft) O-NO 67 0 min -5,2 C -1,9 C 5,3 km/h (1 Bft)
27.12.2020 21:00 1,4 C 3,9 C 0,9 C 0,7 C -0,6 C 0,0 C 61 % 65 % 992,2 hPa 0,0 l/m 5,0 km/h (1 Bft) O 90 0 min -5,3 C -2,3 C 6,9 km/h (2 Bft)
27.12.2020 21:05 1,5 C 3,9 C 1,0 C 0,9 C -0,4 C 0,0 C 61 % 64 % 992,2 hPa 0,0 l/m 4,8 km/h (1 Bft) NO 45 0 min -5,2 C -1,9 C 6,3 km/h (2 Bft)
27.12.2020 21:10 1,6 C 3,9 C 1,1 C 0,9 C -0,4 C 0,0 C 61 % 64 % 991,8 hPa 0,0 l/m 5,1 km/h (1 Bft) O-NO 67 0 min -5,1 C -2,1 C 9,3 km/h (2 Bft)
27.12.2020 21:15 1,6 C 3,9 C 1,1 C 0,9 C -0,5 C 0,0 C 61 % 64 % 991,8 hPa 0,0 l/m 5,6 km/h (1 Bft) O-NO 67 0 min -5,1 C -2,4 C 5,8 km/h (2 Bft)
27.12.2020 21:20 1,6 C 3,9 C 1,1 C 1,0 C -0,3 C 0,0 C 61 % 64 % 991,8 hPa 0,0 l/m 5,1 km/h (1 Bft) SO 135 0 min -5,1 C -2,0 C 3,4 km/h (1 Bft)
27.12.2020 21:25 1,5 C 3,9 C 1,1 C 0,9 C -0,2 C 0,0 C 61 % 64 % 991,8 hPa 0,0 l/m 4,7 km/h (1 Bft) O 90 0 min -5,2 C -1,7 C 3,5 km/h (1 Bft)
27.12.2020 21:30 1,5 C 3,9 C 1,0 C 0,9 C -0,4 C 0,0 C 62 % 65 % 991,4 hPa 0,0 l/m 5,3 km/h (1 Bft) O 90 0 min -5,0 C -2,2 C 7,7 km/h (2 Bft)
27.12.2020 21:35 1,5 C 3,9 C 1,0 C 0,8 C -0,6 C 0,0 C 62 % 65 % 991,4 hPa 0,0 l/m 5,5 km/h (1 Bft) O-NO 67 0 min -5,0 C -2,5 C 6,0 km/h (2 Bft)
27.12.2020 21:40 1,5 C 3,9 C 1,0 C 0,9 C -0,4 C 0,0 C 62 % 65 % 991,4 hPa 0,0 l/m 5,3 km/h (1 Bft) O-SO 112 0 min -5,0 C -2,2 C 6,1 km/h (2 Bft)
27.12.2020 21:45 1,5 C 3,9 C 0,9 C 1,0 C 0,1 C 0,0 C 62 % 66 % 991,4 hPa 0,0 l/m 4,2 km/h (1 Bft) O 90 0 min -5,0 C 0,1 C 2,9 km/h (1 Bft)
27.12.2020 21:50 1,5 C 3,9 C 1,0 C 1,1 C 0,2 C 0,0 C 62 % 66 % 991,1 hPa 0,0 l/m 3,9 km/h (1 Bft) O-NO 67 0 min -5,0 C 0,2 C 5,5 km/h (1 Bft)
27.12.2020 21:55 1,5 C 3,9 C 1,0 C 1,0 C -0,1 C 0,0 C 63 % 66 % 991,1 hPa 0,0 l/m 4,5 km/h (1 Bft) S-SO 157 0 min -4,8 C -0,1 C 14,6 km/h (3 Bft)
27.12.2020 22:00 1,5 C 3,9 C 1,0 C 1,0 C -0,1 C 0,0 C 63 % 66 % 991,1 hPa 0,0 l/m 4,5 km/h (1 Bft) N-NO 22 0 min -4,8 C -0,1 C 7,9 km/h (2 Bft)
27.12.2020 22:05 1,5 C 3,9 C 0,9 C 1,0 C 0,0 C 0,0 C 63 % 67 % 991,1 hPa 0,0 l/m 4,3 km/h (1 Bft) N-NO 22 0 min -4,8 C 0,0 C 4,5 km/h (1 Bft)
27.12.2020 22:11 1,6 C 3,9 C 0,9 C 1,1 C 0,2 C 0,0 C 63 % 67 % 991,6 hPa 0,0 l/m 3,9 km/h (1 Bft) N 0 0 min -4,7 C 0,2 C 4,8 km/h (1 Bft)
27.12.2020 22:26 1,6 C 3,9 C 1,0 C 1,3 C 0,6 C 0,0 C 64 % 68 % 991,6 hPa 0,0 l/m 3,5 km/h (1 Bft) S-SO 157 0 min -4,5 C 0,6 C 2,9 km/h (1 Bft)
27.12.2020 22:38 1,7 C 3,9 C 1,1 C 1,4 C 0,8 C 0,0 C 64 % 67 % 991,0 hPa 0,0 l/m 3,2 km/h (1 Bft) O-NO 67 0 min -4,4 C 0,8 C 3,7 km/h (1 Bft)
27.12.2020 22:40 1,7 C 3,9 C 1,1 C 1,4 C 0,8 C 0,0 C 64 % 67 % 991,0 hPa 0,0 l/m 3,2 km/h (1 Bft) O-NO 67 0 min -4,4 C 0,8 C 3,7 km/h (1 Bft)
27.12.2020 22:45 1,7 C 3,9 C 1,1 C 1,3 C 0,6 C 0,0 C 64 % 68 % 991,0 hPa 0,0 l/m 3,5 km/h (1 Bft) O 90 0 min -4,4 C 0,6 C 9,0 km/h (2 Bft)
27.12.2020 22:50 1,6 C 3,9 C 1,0 C 1,3 C 0,8 C 0,0 C 64 % 68 % 990,8 hPa 0,0 l/m 3,2 km/h (1 Bft) N-NW 337 0 min -4,5 C 0,8 C 2,1 km/h (1 Bft)
27.12.2020 22:55 1,6 C 3,9 C 1,0 C 1,3 C 0,6 C 0,0 C 64 % 69 % 990,8 hPa 0,0 l/m 3,5 km/h (1 Bft) O-SO 112 0 min -4,5 C 0,6 C 5,3 km/h (1 Bft)
27.12.2020 23:00 1,6 C 3,9 C 1,1 C 1,1 C 0,2 C 0,0 C 64 % 68 % 990,8 hPa 0,0 l/m 4,3 km/h (1 Bft) NO 45 0 min -4,5 C 0,2 C 4,2 km/h (1 Bft)
27.12.2020 23:05 1,6 C 3,9 C 1,1 C 1,0 C -0,2 C 0,0 C 64 % 69 % 990,8 hPa 0,0 l/m 5,3 km/h (1 Bft) O 90 0 min -4,5 C -2,0 C 9,0 km/h (2 Bft)
27.12.2020 23:10 1,6 C 3,9 C 1,1 C 1,0 C -0,2 C 0,0 C 64 % 69 % 990,3 hPa 0,0 l/m 5,3 km/h (1 Bft) O 90 0 min -4,5 C -2,0 C 9,0 km/h (2 Bft)
27.12.2020 23:15 1,6 C 3,9 C 1,0 C 1,1 C 0,1 C 0,0 C 65 % 69 % 990,3 hPa 0,0 l/m 4,3 km/h (1 Bft) W-NW 292 0 min -4,3 C 0,1 C 12,7 km/h (3 Bft)
27.12.2020 23:20 1,5 C 3,9 C 0,9 C 0,9 C -0,3 C 0,0 C 66 % 69 % 990,3 hPa 0,0 l/m 5,1 km/h (1 Bft) O-NO 67 0 min -4,1 C -2,0 C 5,0 km/h (1 Bft)
27.12.2020 23:25 1,5 C 3,9 C 1,0 C 0,9 C -0,4 C 0,0 C 66 % 70 % 990,3 hPa 0,0 l/m 5,3 km/h (1 Bft) O-NO 67 0 min -4,1 C -2,2 C 13,7 km/h (3 Bft)
27.12.2020 23:30 1,5 C 3,9 C 1,0 C 0,9 C -0,4 C 0,0 C 66 % 70 % 990,4 hPa 0,0 l/m 5,1 km/h (1 Bft) O-SO 112 0 min -4,1 C -2,1 C 11,4 km/h (2 Bft)
27.12.2020 23:35 1,5 C 3,9 C 0,9 C 0,9 C -0,3 C 0,0 C 67 % 70 % 990,4 hPa 0,0 l/m 4,8 km/h (1 Bft) SO 135 0 min -3,9 C -1,8 C 4,5 km/h (1 Bft)
27.12.2020 23:40 1,5 C 3,9 C 0,9 C 0,8 C -0,5 C 0,0 C 67 % 70 % 990,4 hPa 0,0 l/m 5,1 km/h (1 Bft) O-NO 67 0 min -3,9 C -2,2 C 2,3 km/h (1 Bft)
27.12.2020 23:45 1,5 C 3,9 C 0,9 C 0,9 C -0,2 C 0,0 C 67 % 71 % 990,4 hPa 0,0 l/m 4,5 km/h (1 Bft) NO 45 0 min -3,9 C -0,2 C 16,1 km/h (3 Bft)
27.12.2020 23:50 1,5 C 3,9 C 0,8 C 1,1 C 0,4 C 0,0 C 67 % 71 % 989,9 hPa 0,0 l/m 3,4 km/h (1 Bft) W-SW 247 0 min -3,9 C 0,4 C 2,3 km/h (1 Bft)
27.12.2020 23:55 1,5 C 3,9 C 0,7 C 1,3 C 0,8 C 0,0 C 67 % 71 % 989,9 hPa 0,0 l/m 2,6 km/h (1 Bft) O-SO 112 0 min -3,9 C 0,8 C 0,0 km/h (0 Bft)
_ Min-Zeit 08:00 11:05 08:10 08:30 04:35 00:00 14:55 15:05 23:50 - 13:50 - - - 18:55 03:00 08:10
Minimum _ -0,4 C 3,8 C -1,1 C -1,1 C -3,3 C 0,0 C 52 % 55 % 989,9 hPa - 1,1 km/h (1 Bft) - - - -6,5 C -7,4 C 0,0 km/h (0 Bft)
_ Max-Zeit 13:20 00:00 13:20 12:45 12:45 11:35 00:00 00:00 00:00 00:00 03:00 - - 00:00 00:55 12:45 01:55
Maximum _ 2,7 C 4,5 C 2,3 C 3,2 C 3,2 C 0,8 C 79 % 84 % 1017,6 hPa 0,0 l/m 10,8 km/h
O-SO (2 Bft)
- - 0 min -1,7 C 3,2 C 26,2 km/h
SO (4 Bft)
Durchschnitt _ 1,2 C 4,0 C 0,6 C 0,8 C -0,2 C 0,1 C 66 % 70 % 1003,1 hPa #0,0 l/m 4,1 km/h (1 Bft) S - #0 min. -4,6 C -1,2 C 5,4 km/h (1 Bft)
2020 www.wetterstation-wechselburg.de